Flag for United Kingdom Weather past 2 weeks in Salisbury, England, United Kingdom

Now
27 °F

Ice fog.


Feels Like: 18 °F
Forecast: 26 / 41 °F
Wind: 8 mph from Northwest

Location: Boscombe Down

Current Time: Dec 29, 2014 at 7:36:17 AM

Latest Report: Dec 29, 2014 at 6:50 AM


Visibility: 4 mi

Pressure: 30.72 "Hg

Humidity: 93%

Dew point: 25 °F

Location of SalisburyLocation

Historic Weather in Salisbury — Graph

°F

Salisbury temperature yesterday

Maximum temperature yesterday: 41 °F (at 1:50 PM)
Minimum temperature yesterday: 27 °F (at 10:50 PM)
Average temperature yesterday: 33 °F

Past Weeks' High & Low Weather Summary

 TemperatureHumidityPressure
High55 °F (Dec 17, 12:50 PM)100% (Dec 14, 6:50 AM)30.72 "Hg (Dec 14, 6:50 AM)
Low25 °F (Dec 29, 1:50 AM)61% (Dec 24, 2:50 PM)29.59 "Hg (Dec 26, 10:50 PM)
Average44 °F88%30.08 "Hg
* Reported Dec 14 5:50 AM — Dec 29 5:50 AM, Salisbury, Weather by CustomWeather, © 2014

Note: Actual official high and low records may vary slightly from our data, if they occured in-between our weather recording intervals... More about our weather records

Advertising

Salisbury weather history for previous 24 hours

 ConditionsComfort  
Time TempWeatherWind HumidityBarometerVisibility
5:50 AM
Dec 29
27 °FPassing clouds.8 mph93%30.69 "HgN/A
4:50 AM27 °FChilly.7 mph93%30.69 "HgN/A
3:50 AM27 °FIce fog.7 mph93%30.72 "Hg5 mi
2:50 AM25 °FIce fog.7 mph100%30.69 "Hg4 mi
1:50 AM25 °FIce fog.6 mph100%30.69 "Hg3 mi
12:50 AM27 °FIce fog.7 mph100%30.69 "Hg4 mi
11:50 PM
Dec 28
27 °FIce fog.7 mph100%30.69 "Hg4 mi
10:50 PM27 °FIce fog.8 mph100%30.69 "Hg5 mi
9:50 PM28 °FIce fog.8 mph93%30.66 "Hg4 mi
8:50 PM28 °FChilly.5 mph93%30.66 "HgN/A
7:50 PM30 °FChilly.6 mph93%30.66 "HgN/A
6:50 PM30 °FChilly.7 mph93%30.63 "HgN/A
5:50 PM32 °FChilly.8 mph87%30.60 "HgN/A
4:50 PM34 °FChilly.8 mph81%30.57 "HgN/A
3:50 PM37 °FChilly.7 mph75%30.54 "HgN/A
2:50 PM39 °FChilly.9 mph70%30.51 "HgN/A
1:50 PM41 °FQuite cool.10 mph66%30.51 "HgN/A
12:50 PM39 °FChilly.10 mph70%30.48 "HgN/A
11:50 AM37 °FChilly.13 mph75%30.45 "HgN/A
10:50 AM36 °FChilly.12 mph81%30.45 "HgN/A
9:50 AM34 °FChilly.15 mph87%30.42 "HgN/A
8:50 AM32 °FChilly.15 mph87%30.36 "HgN/A
7:50 AM32 °FChilly.13 mph87%30.30 "HgN/A
Weather by CustomWeather, © 2014

See weather overviewHow to use our weather pages